Location: Puketoi
(40.5833°S, 176.0167°E)
Time: 15:23:48
(UTC+00:00)

Cosmos 1725 Rocket - Pass Details

Date: 08 February 2023
Orbit: 961 x 991 km, 82.9° (Epoch: 22 March)

Event Time Altitude Azimuth Distance (km) Brightness Sun altitude
Exits shadow 13:59:03 80° 184° (S) 990 3.9 -30.7°
Drops below altitude 10° 14:04:56 10° 173° (S) 2,729 7.1 -30.3°
Sets 14:07:28 0° 172° (S) 3,684 8.0 -30.0°
